Volver al catálogo

ATLAS 5 CENTAUR DEB

ActivoHEO
NORAD 44662·DEBRIS·🇺🇸 United States

Lanzado Oct 17, 2018 desde Cape Canaveral Space Force Station

Loading…

Próximos Pases (próximas 24 horas)

TLE

ActualizadoSource: Space-Track

Época: Sep 8, 2026, 09:38 UTC

1 44662U 18079Y   26251.40159876 -.00000208  00000-0  00000-0 0  9994
2 44662  13.4109  20.5835 4705871 347.2159   3.9643  1.84810569 49097

Sigue ATLAS 5 CENTAUR DEB en tiempo real con AllMySat

Download on the App Store